STPSAT-6

Last updated on Tue Sep 22 2026 00:03:15 GMT+0000 (Coordinated Universal Time)

1 49817U 21118A 26264.50541517 -.00000048 00000+0 00000+0 0 9991 2 49817 0.5624 84.1216 0000885 207.3247 138.9697 1.00272176 17531
UTC large
Height (km)
Speed (km/s)
/
Latitude / Longitude
Inclination (degrees)
Orbital Period (minutes)
Azimuth
Elevation
Range (km)
Doppler Factor

Next 0 passes for location: London (51.5072 / 0.1276)

No passes found over London.
STPSAT-6